TimeEST,TemperatureF,Dew PointF,Humidity,Sea Level PressureIn,VisibilityMPH,Wind Direction,Wind SpeedMPH,Gust SpeedMPH,PrecipitationIn,Events,Conditions,WindDirDegrees,DateUTC
12:53 AM,30.0,21.9,72,30.39,7.0,West,3.5,-,N/A,,Overcast,280,2013-01-07 05:53:00
1:53 AM,28.0,21.9,78,30.40,7.0,Calm,Calm,-,N/A,,Overcast,0,2013-01-07 06:53:00
2:53 AM,27.0,21.9,81,30.41,6.0,West,3.5,-,N/A,,Haze,260,2013-01-07 07:53:00
3:53 AM,21.9,18.0,85,30.43,5.0,Calm,Calm,-,N/A,,Clear,0,2013-01-07 08:53:00
4:53 AM,19.0,16.0,88,30.44,3.0,Calm,Calm,-,N/A,,Clear,0,2013-01-07 09:53:00
5:53 AM,18.0,14.0,84,30.46,4.0,Calm,Calm,-,N/A,,Mist,0,2013-01-07 10:53:00
6:51 AM,15.8,12.2,86,30.45,2.5,Calm,Calm,-,N/A,,Clear,0,2013-01-07 11:51:00
6:53 AM,16.0,12.0,84,30.49,2.5,Calm,Calm,-,N/A,,Clear,0,2013-01-07 11:53:00
7:01 AM,15.8,12.2,86,30.46,3.0,Calm,Calm,-,N/A,,Clear,0,2013-01-07 12:01:00
7:40 AM,15.8,12.2,86,30.46,2.0,Calm,Calm,-,N/A,,Clear,0,2013-01-07 12:40:00
7:53 AM,16.0,10.9,81,30.50,3.0,Calm,Calm,-,N/A,,Haze,0,2013-01-07 12:53:00
8:03 AM,15.8,10.4,79,30.47,2.0,Calm,Calm,-,N/A,,Clear,0,2013-01-07 13:03:00
8:53 AM,18.0,15.1,88,30.51,1.8,Calm,Calm,-,N/A,,Clear,0,2013-01-07 13:53:00
9:05 AM,19.4,17.6,93,30.49,2.0,Calm,Calm,-,N/A,,Clear,0,2013-01-07 14:05:00
9:53 AM,26.1,23.0,88,30.52,3.0,Calm,Calm,-,N/A,,Clear,0,2013-01-07 14:53:00
10:53 AM,28.9,23.0,78,30.51,5.0,Calm,Calm,-,N/A,,Haze,0,2013-01-07 15:53:00
11:53 AM,32.0,24.1,73,30.47,4.0,East,5.8,-,N/A,,Haze,80,2013-01-07 16:53:00
12:53 PM,37.9,24.1,57,30.43,10.0,South,8.1,-,N/A,,Clear,190,2013-01-07 17:53:00
1:53 PM,39.0,24.1,55,30.41,10.0,SSW,8.1,-,N/A,,Clear,210,2013-01-07 18:53:00
2:53 PM,41.0,25.0,53,30.39,10.0,South,3.5,-,N/A,,Clear,190,2013-01-07 19:53:00
3:53 PM,41.0,25.0,53,30.39,10.0,SSW,4.6,-,N/A,,Clear,210,2013-01-07 20:53:00
4:53 PM,39.9,24.1,53,30.36,10.0,SSE,5.8,-,N/A,,Clear,160,2013-01-07 21:53:00
5:53 PM,36.0,24.1,62,30.35,10.0,Calm,Calm,-,N/A,,Clear,0,2013-01-07 22:53:00
6:53 PM,32.0,23.0,69,30.33,10.0,SSE,3.5,-,N/A,,Clear,150,2013-01-07 23:53:00
7:53 PM,33.1,23.0,66,30.32,10.0,SSE,3.5,-,N/A,,Clear,160,2013-01-08 00:53:00
8:53 PM,24.1,19.0,81,30.32,9.0,Calm,Calm,-,N/A,,Clear,0,2013-01-08 01:53:00
9:53 PM,21.0,18.0,88,30.30,7.0,Calm,Calm,-,N/A,,Clear,0,2013-01-08 02:53:00
10:53 PM,21.0,17.1,85,30.30,7.0,Calm,Calm,-,N/A,,Clear,0,2013-01-08 03:53:00
11:53 PM,19.0,16.0,88,30.31,6.0,Calm,Calm,-,N/A,,Clear,0,2013-01-08 04:53:00